OPS 4682 DEB, 26733

Orbit data source: Space-Track

OPS 4682 DEB, 26733 is space debris in LEO originally from a launch on Sat, 03 Apr 1965 UTC launched from the Air Force Western Test Range (AFWTR). Debris objects in space refer to the collection of defunct objects orbiting the Earth. Examples of debris include non-operational satellites, rocket bodies, and fragments generated from explosions, collisions, or faulty payload assembly.

Loading next visibility...
Identifier
26733, 1965-027BG
Orbit
LEO
Country
Flag of USUS
Related business
Manufacturer
Unknown
Mission
Spacecraft
Bus & Motor
Unknown
Mass
Unknown
Launch date (UTC)
1965-04-03 (61 years ago)
Launch vehicle
Unknown
Launch site
Air Force Western Test Range (AFWTR)
Object type
Payload
Rocket body
Debris
Shape & HBR
Unknown shape, 0.1 m
Radar Cross Section
Medium (>0.1 m² and <1 m²)

Expand to show TLE details & history
Last TLE update: 5 days ago

TLE from 5 days ago
0 OPS 4682 DEB
1 26733U 65027BG  26154.86795350  .00000046  00000-0  13851-3 0  9993
2 26733  90.2393   5.8855 0031724 259.6797 163.0733 12.94424907195282
Epoch: 2026-06-03T20:49Z
TLE epoch observation values (Epoch: 2026-06-03T20:49:51.182Z)
Latitude
62.9402°
Longitude
160.63573°
Altitude
1,318.158 km
Speed
7.193 km/s
True Right ascension
00h 21m 40s
True Declination
62° 48' 39"
Sunlit
Object was in daylight at epoch
Visualization orbit readout
Latitude
Unknown
Longitude
Unknown
Altitude
Unknown
Speed
Unknown
Apparent Right ascension
Unknown
Apparent Declination
Unknown
Sunlit
N/A
Visualization observer readout
Local Sidereal Time
18:45:50
Azimuth
Unknown
Elevation
Unknown
Doppler factor
Unknown
Orbital elements
Apogee altitude
1,305.442 km
Perigee altitude
1,256.845 km
Semi-major axis
7,659.281 km
Eccentricity
0.00317
Inclination
90.2393°
RAAN
5.8855°
Arg. of periapsis
259.6797°
True anomaly
163.17874°
Mean anomaly
163.0733°
Eccentric anomaly
163.12606°
Mean motion
3.23788 °/min
Orbital period
111.18 mins
BSTAR
0.00013851
Loading maneuver chart data...
Computing Atmospheric mass density...
Loading historical data...
Loading historical data...
Loading historical data...
Loading historical data...
Loading historical data...
Loading historical data...
Loading historical data...

Documentation

Showing up to 5 results
|